Location: Poughquag
(41.6090°N, 73.6820°W)
Time: 16:33:04
(UTC-05:00)

N. Korean satellite - Pass Details

Date: 26 January 2020
Orbit: 456 x 505 km, 97.2° (Epoch: 24 February)

Event Time Altitude Azimuth Distance (km) Brightness Sun altitude
Rises 05:01:19 0° 25° (NNE) 2,544 10.5 -24.5°
Reaches altitude 10° 05:03:39 10° 40° (NE) 1,669 9.7 -24.1°
Maximum altitude 05:06:37 24° 95° (E) 1,051 9.0 -23.5°
Drops below altitude 10° 05:09:36 10° 151° (SSE) 1,680 9.7 -22.9°
Sets 05:11:57 0° 166° (SSE) 2,565 10.5 -22.5°
